TimeEDT,TemperatureF,Dew PointF,Humidity,Sea Level PressureIn,VisibilityMPH,Wind Direction,Wind SpeedMPH,Gust SpeedMPH,PrecipitationIn,Events,Conditions,WindDirDegrees,DateUTC
12:54 AM,37.9,27.0,65,30.13,10.0,WNW,20.7,34.5,N/A,,Partly Cloudy,300,2012-10-11 04:54:00
1:54 AM,36.0,26.1,67,30.15,10.0,WNW,15.0,24.2,N/A,,Clear,290,2012-10-11 05:54:00
2:54 AM,35.1,25.0,67,30.16,10.0,WNW,13.8,21.9,N/A,,Clear,290,2012-10-11 06:54:00
3:54 AM,35.1,26.1,70,30.17,10.0,West,8.1,18.4,N/A,,Clear,280,2012-10-11 07:54:00
4:54 AM,33.1,26.1,75,30.21,10.0,WSW,5.8,-,N/A,,Mostly Cloudy,240,2012-10-11 08:54:00
5:54 AM,32.0,26.1,79,30.24,10.0,SW,6.9,-,N/A,,Partly Cloudy,230,2012-10-11 09:54:00
6:54 AM,32.0,26.1,79,30.27,10.0,West,8.1,-,N/A,,Clear,260,2012-10-11 10:54:00
7:54 AM,32.0,26.1,79,30.28,10.0,West,6.9,-,N/A,,Clear,260,2012-10-11 11:54:00
8:54 AM,34.0,27.0,75,30.30,10.0,WSW,8.1,-,N/A,,Clear,240,2012-10-11 12:54:00
9:54 AM,37.9,26.1,62,30.30,10.0,Variable,5.8,-,N/A,,Clear,0,2012-10-11 13:54:00
10:54 AM,41.0,27.0,57,30.30,10.0,West,10.4,17.3,N/A,,Clear,280,2012-10-11 14:54:00
11:54 AM,42.1,27.0,55,30.29,10.0,WNW,8.1,-,N/A,,Clear,300,2012-10-11 15:54:00
12:54 PM,45.0,27.0,49,30.27,10.0,WSW,12.7,-,N/A,,Clear,250,2012-10-11 16:54:00
1:54 PM,46.9,27.0,46,30.22,10.0,West,8.1,-,N/A,,Clear,270,2012-10-11 17:54:00
2:54 PM,50.0,27.0,41,30.20,10.0,West,6.9,-,N/A,,Clear,280,2012-10-11 18:54:00
3:54 PM,52.0,27.0,38,30.18,10.0,West,8.1,-,N/A,,Clear,260,2012-10-11 19:54:00
4:54 PM,52.0,26.1,37,30.17,10.0,WSW,5.8,-,N/A,,Clear,250,2012-10-11 20:54:00
6:54 PM,46.0,28.0,50,30.19,10.0,West,4.6,-,N/A,,Clear,260,2012-10-11 22:54:00
7:54 PM,46.0,27.0,47,30.19,10.0,WSW,3.5,-,N/A,,Clear,240,2012-10-11 23:54:00
8:54 PM,44.1,28.0,53,30.19,10.0,SW,4.6,-,N/A,,Clear,220,2012-10-12 00:54:00
9:54 PM,43.0,28.9,58,30.20,10.0,WSW,9.2,-,N/A,,Clear,240,2012-10-12 01:54:00
10:54 PM,42.1,28.9,60,30.20,10.0,SW,6.9,-,N/A,,Clear,230,2012-10-12 02:54:00
11:54 PM,44.1,28.0,53,30.19,10.0,SW,9.2,-,N/A,,Clear,230,2012-10-12 03:54:00